Location: Unspecified
(0.0000°N, 0.0000°E)
Time: 04:45:19
(UTC+00:00)

Hubble Space Telescope - Pass Details

Date: 01 February 2023
Orbit: 529 x 532 km, 28.5° (Epoch: 27 January)

Event Time Altitude Azimuth Distance (km) Brightness Sun altitude
Rises 20:30:43 0° 232° (SW) 2,652 5.3 -32.6°
Reaches altitude 10° 20:33:01 10° 228° (SW) 1,762 4.1 -33.1°
Enters shadow 20:33:49 15° 225° (SW) 1,456 3.6 -33.3°
